$DATE,$TIME,DM0600B,DM0602B,DM0604B,DM0614B,DM0616B,DM0618B,DM0624B,DM0628B,DM0630B,DM0634B,DM0606B,DM0608B,DM0610B
12/03/94,00:00:00,0,0,0,0,0,42,40,70,53,0,29,33,25
12/03/94,00:05:00,0,0,0,0,0,44,42,70,51,0,34,30,26
12/03/94,00:10:00,0,0,0,0,0,46,44,70,51,0,29,28,34
12/03/94,00:15:00,0,0,0,0,0,48,45,70,51,0,28,33,27
12/03/94,00:20:00,0,0,0,0,0,45,43,70,55,0,33,25,23
12/03/94,00:25:00,0,0,0,0,0,46,44,69,51,0,26,35,28
12/03/94,00:30:00,0,0,0,0,0,48,45,70,53,0,30,25,32
12/03/94,00:35:00,0,0,0,0,0,46,44,69,53,0,31,31,28
12/03/94,00:40:00,0,0,0,0,0,49,47,69,53,0,25,31,23
12/03/94,00:45:00,0,0,0,0,0,48,46,69,51,0,32,27,29
12/03/94,00:50:00,0,0,0,0,0,42,40,69,51,0,31,35,31
12/03/94,00:55:00,0,0,0,0,0,41,39,69,51,0,26,24,25
12/03/94,01:00:00,0,0,0,0,0,42,40,69,51,0,32,32,25
12/03/94,01:05:00,0,0,0,0,0,43,41,69,51,0,30,27,32
12/03/94,01:10:00,0,0,0,0,0,42,41,69,53,0,25,29,30
12/03/94,01:15:00,0,0,0,0,0,41,39,70,53,0,34,33,23
12/03/94,01:20:00,0,0,0,0,0,42,40,69,53,0,31,25,29
12/03/94,01:25:00,0,0,0,0,0,44,42,70,51,0,26,35,33
12/03/94,01:30:00,0,0,0,0,0,43,41,70,51,0,35,25,28
12/03/94,01:35:00,0,0,0,0,0,42,41,69,51,0,29,31,23
12/03/94,01:40:00,0,0,0,0,0,43,41,69,51,0,27,32,27
12/03/94,01:45:00,0,0,0,0,0,43,42,69,51,0,33,27,33
12/03/94,01:50:00,0,0,0,0,0,42,40,69,51,0,27,36,27
12/03/94,01:55:00,0,0,0,0,0,45,43,69,53,0,31,25,23
12/03/94,02:00:00,0,0,0,0,0,55,51,69,53,0,32,31,29
12/03/94,02:05:00,0,0,0,0,0,52,49,69,53,0,24,28,28
12/03/94,02:10:00,0,0,0,0,0,63,60,69,51,0,31,27,21
12/03/94,02:15:00,0,0,0,0,0,60,53,69,51,0,26,32,25
12/03/94,02:20:00,0,0,0,0,0,60,58,69,51,0,26,21,28
12/03/94,02:25:00,0,0,0,0,0,56,54,69,51,0,30,31,19
12/03/94,02:30:00,0,0,0,0,0,56,53,69,51,0,21,24,24
12/03/94,02:35:00,0,0,0,0,0,67,64,69,53,0,31,26,28
12/03/94,02:40:00,0,0,0,0,0,68,65,69,53,0,21,28,18
12/03/94,02:45:00,0,0,0,0,0,66,63,69,53,0,28,20,25
12/03/94,02:50:00,0,0,0,0,0,75,71,69,51,0,21,31,20
12/03/94,02:55:00,0,0,0,0,0,66,65,69,51,0,24,23,20
12/03/94,03:00:00,0,0,0,0,0,81,71,69,51,0,22,21,23
12/03/94,03:05:00,0,0,0,0,0,83,76,68,51,0,22,27,18
12/03/94,03:10:00,0,0,0,0,0,76,73,68,51,0,19,19,18
12/03/94,03:15:00,0,0,0,0,0,71,68,71,53,0,24,24,20
12/03/94,03:20:00,0,0,0,0,0,68,66,68,53,0,18,25,15
12/03/94,03:25:00,0,0,0,0,0,62,58,68,53,0,26,18,22
12/03/94,03:30:00,0,0,0,0,0,63,59,68,51,0,18,27,17
12/03/94,03:35:00,0,0,0,0,0,60,53,68,51,0,26,24,22
12/03/94,03:40:00,0,0,0,0,0,62,62,68,43,0,21,20,21
12/03/94,03:45:00,0,0,0,0,0,50,48,68,43,0,24,29,19
12/03/94,03:50:00,0,0,0,0,0,50,51,68,44,0,23,20,24
12/03/94,03:55:00,0,0,0,0,0,46,43,68,45,0,24,26,20
12/03/94,04:00:00,0,0,0,0,0,44,42,68,45,0,25,27,28
12/03/94,04:05:00,0,0,0,0,0,37,35,69,45,0,24,22,20
12/03/94,04:10:00,0,0,0,0,0,35,33,69,51,0,30,33,25
12/03/94,04:15:00,0,0,0,0,0,36,35,69,51,0,23,25,29
12/03/94,04:20:00,0,0,0,0,0,37,36,69,51,0,34,30,22
12/03/94,04:25:00,0,0,0,0,0,38,37,69,51,0,27,31,26
12/03/94,04:30:00,0,0,0,0,0,41,39,69,35,0,31,26,32
12/03/94,04:35:00,0,0,0,0,0,43,41,69,37,0,28,33,23
12/03/94,04:40:00,0,0,0,0,0,45,43,68,37,0,25,22,23
12/03/94,04:45:00,0,0,0,0,0,48,46,69,53,0,31,31,30
12/03/94,04:50:00,0,0,0,0,0,43,41,69,53,0,24,26,25
12/03/94,04:55:00,0,0,0,0,0,42,42,69,51,0,32,28,24
12/03/94,05:00:00,0,0,0,0,0,60,55,69,56,0,26,31,29
12/03/94,05:05:00,0,0,0,0,0,40,38,69,35,0,27,22,25
12/03/94,05:10:00,0,0,0,0,0,32,31,69,35,0,28,32,22
12/03/94,05:15:00,0,0,0,0,0,29,27,68,35,0,24,25,30
12/03/94,05:20:00,0,0,0,0,0,27,25,69,35,0,33,28,28
12/03/94,05:25:00,0,0,0,0,0,28,27,69,37,0,25,30,21
12/03/94,05:30:00,0,0,0,0,0,32,31,69,37,0,32,25,29
12/03/94,05:35:00,0,0,0,0,0,40,43,69,37,0,28,33,29
12/03/94,05:40:00,1,9,17,0,0,51,49,68,37,0,23,22,20
12/03/94,05:45:00,10,3,15,0,0,52,50,68,35,0,30,29,25
12/03/94,05:50:00,0,0,0,0,0,37,35,69,35,0,20,24,18
12/03/94,05:55:00,59,69,55,49,0,40,38,67,34,0,18,16,18
12/03/94,06:00:00,55,61,38,34,0,47,44,66,34,0,15,13,13
12/03/94,06:05:00,46,25,45,26,0,39,39,65,34,0,13,11,11
12/03/94,06:10:00,38,37,36,42,0,39,38,66,36,0,12,10,10
12/03/94,06:15:00,41,6,45,25,0,34,32,66,36,0,12,9,10
12/03/94,06:20:00,58,10,45,39,0,32,30,66,36,0,11,8,9
12/03/94,06:25:00,49,14,42,31,0,35,33,66,34,0,10,8,9
12/03/94,06:30:00,49,24,46,32,0,35,33,66,34,0,10,8,9
12/03/94,06:35:00,57,23,42,35,0,34,32,66,34,0,10,7,9
12/03/94,06:40:00,57,21,35,34,0,30,29,66,34,0,10,7,8
12/03/94,06:45:00,56,23,46,33,0,29,28,66,34,0,10,8,8
12/03/94,06:50:00,58,21,41,35,0,30,29,66,36,0,9,8,8
12/03/94,06:55:00,54,26,47,32,0,29,28,66,36,0,10,7,8
12/03/94,07:00:00,58,26,42,34,0,32,31,66,36,0,10,7,9
12/03/94,07:05:00,57,22,43,33,0,33,31,66,34,0,9,7,9
12/03/94,07:10:00,58,23,42,32,0,44,44,66,34,0,9,7,8
12/03/94,07:15:00,58,28,44,29,0,34,32,66,34,0,9,7,8
12/03/94,07:20:00,57,20,42,33,0,33,32,66,34,0,8,7,8
12/03/94,07:25:00,53,23,36,30,0,40,39,66,34,0,9,7,8
12/03/94,07:30:00,58,28,43,32,0,29,28,66,34,0,8,6,7
12/03/94,07:35:00,54,26,43,32,0,34,32,66,36,0,8,6,7
12/03/94,07:40:00,57,25,34,32,0,28,27,66,35,0,8,7,7
12/03/94,07:45:00,56,24,37,31,0,23,22,66,35,0,8,7,7
12/03/94,07:50:00,53,28,39,36,0,23,22,66,33,0,8,7,7
12/03/94,07:55:00,56,27,41,32,0,25,24,66,33,0,8,7,7
12/03/94,08:00:00,54,25,41,29,0,33,32,66,33,0,9,6,7
12/03/94,08:05:00,51,30,34,30,0,28,26,66,33,0,9,6,8
12/03/94,08:10:00,53,27,38,30,0,29,28,66,33,0,9,6,8
12/03/94,08:15:00,42,27,32,27,0,27,26,66,35,0,9,6,8
12/03/94,08:20:00,47,30,41,32,0,27,26,66,35,0,8,6,8
12/03/94,08:25:00,53,29,35,35,0,21,21,66,35,0,8,6,8
12/03/94,08:30:00,55,30,42,30,0,17,16,66,34,0,8,6,8
12/03/94,08:35:00,50,35,40,35,0,15,15,66,34,0,8,7,8
12/03/94,08:40:00,57,31,32,29,0,14,14,66,34,0,8,7,8
12/03/94,08:45:00,45,23,42,33,0,14,13,66,34,0,8,7,7
12/03/94,08:50:00,41,31,30,35,0,14,13,66,34,0,8,6,7
12/03/94,08:55:00,43,29,32,33,0,14,14,66,36,0,8,6,7
12/03/94,09:00:00,34,24,36,32,0,13,12,66,36,0,8,6,7
12/03/94,09:05:00,44,39,37,39,0,12,12,66,36,0,8,6,7
12/03/94,09:10:00,50,39,40,36,0,14,14,66,34,0,8,6,8
12/03/94,09:15:00,50,27,32,20,0,15,15,66,35,0,8,6,8
12/03/94,09:20:00,38,32,26,36,0,13,12,66,35,0,8,6,8
12/03/94,09:25:00,44,30,25,27,0,10,10,66,44,0,8,6,7
12/03/94,09:30:00,60,35,34,39,0,9,8,66,35,0,8,6,7
12/03/94,09:35:00,46,29,41,39,0,10,9,66,37,0,8,6,7
12/03/94,09:40:00,37,38,42,31,0,10,10,66,37,0,8,6,7
12/03/94,09:45:00,45,32,35,35,0,14,13,66,37,0,8,6,7
12/03/94,09:50:00,48,36,41,35,0,15,14,66,35,0,8,6,7
12/03/94,09:55:00,54,34,36,28,0,20,19,66,35,0,8,6,7
12/03/94,10:00:00,46,28,38,30,0,27,25,66,35,0,8,6,7
12/03/94,10:05:00,54,39,41,31,0,17,16,66,35,0,9,6,7
12/03/94,10:10:00,54,41,38,30,0,16,15,66,35,0,8,6,7
12/03/94,10:15:00,55,31,40,30,0,14,13,66,38,0,8,6,8
12/03/94,10:20:00,53,36,39,33,0,11,11,66,37,0,8,6,8
12/03/94,10:25:00,53,39,33,32,0,11,11,66,37,0,8,6,8
12/03/94,10:30:00,55,30,42,33,0,11,10,66,34,0,8,7,7
12/03/94,10:35:00,52,37,41,28,0,11,11,66,34,0,8,7,7
12/03/94,10:40:00,52,35,43,32,0,13,13,66,34,0,8,6,7
12/03/94,10:45:00,50,38,43,30,0,14,14,66,34,0,7,6,7
12/03/94,10:50:00,50,30,33,32,0,20,19,66,34,0,8,6,7
12/03/94,10:55:00,53,33,31,23,0,24,23,66,33,0,8,6,7
12/03/94,11:00:00,43,32,35,33,0,20,19,66,35,0,8,6,7
12/03/94,11:05:00,57,35,35,33,0,17,17,66,36,0,7,6,7
12/03/94,11:10:00,52,34,37,32,0,20,19,66,35,0,9,6,7
12/03/94,11:15:00,50,39,37,26,0,13,13,66,34,0,8,6,7
12/03/94,11:20:00,57,40,39,31,0,12,12,66,34,0,8,7,8
12/03/94,11:25:00,40,38,41,31,0,11,10,66,34,0,8,7,7
12/03/94,11:30:00,12,9,14,12,0,12,11,67,34,0,8,7,7
12/03/94,11:35:00,54,41,47,36,0,10,10,66,34,0,8,6,7
12/03/94,11:40:00,49,28,41,25,0,12,11,66,36,0,8,6,7
12/03/94,11:45:00,0,0,2,0,0,13,13,67,36,0,9,6,6
12/03/94,11:50:00,0,0,0,4,0,16,16,68,37,0,13,13,9
12/03/94,11:55:00,10,2,2,2,0,17,16,68,35,0,18,21,16
12/03/94,12:00:00,0,0,4,0,0,17,16,68,35,0,17,16,13
12/03/94,12:05:00,43,39,50,43,0,15,14,67,34,0,21,23,18
12/03/94,12:10:00,58,60,47,34,0,14,14,66,34,0,14,18,13
12/03/94,12:15:00,40,59,37,25,0,16,15,66,33,0,12,13,11
12/03/94,12:20:00,53,13,45,31,0,15,14,66,36,0,11,11,9
12/03/94,12:25:00,50,27,40,31,0,14,14,66,35,0,10,9,9
12/03/94,12:30:00,51,42,37,27,0,16,15,66,35,0,9,8,8
12/03/94,12:35:00,51,35,40,26,0,14,14,66,33,0,9,7,8
12/03/94,12:40:00,51,33,40,29,0,14,13,66,40,0,9,7,8
12/03/94,12:45:00,21,12,33,12,0,11,11,66,34,0,8,7,8
12/03/94,12:50:00,22,20,36,22,0,9,9,67,34,0,9,7,8
12/03/94,12:55:00,0,0,0,0,0,11,11,68,34,0,9,7,8
12/03/94,13:00:00,2,0,0,0,0,11,10,68,35,0,17,17,13
12/03/94,13:05:00,0,0,16,0,0,11,11,69,37,0,22,27,19
12/03/94,13:10:00,24,17,33,31,0,12,11,69,37,0,23,19,20
12/03/94,13:15:00,37,28,55,37,0,14,13,68,36,0,20,23,17
12/03/94,13:20:00,46,31,50,30,0,14,13,67,48,0,15,17,13
12/03/94,13:25:00,15,14,25,18,0,12,11,67,34,0,12,13,11
12/03/94,13:30:00,20,24,43,11,0,13,12,67,34,0,12,11,9
12/03/94,13:35:00,48,48,43,27,0,16,15,67,34,0,10,9,9
12/03/94,13:40:00,15,27,43,37,0,14,14,67,34,0,10,9,8
12/03/94,13:45:00,0,0,0,0,0,12,11,68,36,0,10,10,8
12/03/94,13:50:00,0,0,0,0,0,11,11,69,37,0,23,23,23
12/03/94,13:55:00,31,29,62,47,0,11,10,68,37,0,20,24,16
12/03/94,14:00:00,46,37,48,34,0,11,11,67,34,0,14,17,12
12/03/94,14:05:00,49,59,44,29,0,15,14,66,34,0,11,13,10
12/03/94,14:10:00,31,31,46,30,0,14,14,66,34,0,10,11,9
12/03/94,14:15:00,58,22,45,31,0,17,16,66,34,0,10,10,8
12/03/94,14:20:00,49,31,44,32,0,15,14,66,34,0,9,9,8
12/03/94,14:25:00,50,41,40,33,0,16,16,66,36,0,8,8,7
12/03/94,14:30:00,55,34,41,35,0,18,17,66,35,0,9,7,7
12/03/94,14:35:00,48,32,37,31,0,17,17,66,37,0,9,7,7
12/03/94,14:40:00,51,35,42,31,0,18,17,66,34,0,8,7,7
12/03/94,14:45:00,50,33,42,31,0,22,22,66,34,0,8,7,6
12/03/94,14:50:00,51,35,39,34,0,21,20,66,34,0,8,7,6
12/03/94,14:55:00,44,41,29,32,0,20,20,66,34,0,8,7,7
12/03/94,15:00:00,49,36,37,34,0,19,18,66,34,0,8,7,8
12/03/94,15:05:00,50,36,38,32,0,18,17,66,34,0,8,7,7
12/03/94,15:10:00,43,38,32,32,0,15,14,66,36,0,8,6,7
12/03/94,15:15:00,54,36,38,35,0,13,12,66,35,0,8,6,7
12/03/94,15:20:00,47,33,39,33,0,17,17,66,36,0,8,6,7
12/03/94,15:25:00,45,35,36,34,0,24,23,66,34,0,8,6,7
12/03/94,15:30:00,46,33,30,32,0,23,22,66,34,0,8,6,7
12/03/94,15:35:00,53,40,32,33,0,26,24,66,38,0,8,6,7
12/03/94,15:40:00,50,27,32,30,0,27,26,66,34,0,8,6,7
12/03/94,15:45:00,44,40,25,34,0,25,24,66,38,0,8,7,6
12/03/94,15:50:00,47,42,39,32,0,15,14,68,44,0,8,7,7
12/03/94,15:55:00,50,39,34,33,0,15,15,69,52,0,7,7,6
12/03/94,16:00:00,57,34,40,36,0,15,14,69,43,0,8,6,7
12/03/94,16:05:00,55,33,37,34,0,13,13,68,41,0,8,6,8
12/03/94,16:10:00,51,32,35,37,0,11,11,68,41,0,8,6,7
12/03/94,16:15:00,58,41,32,35,0,10,10,68,41,0,8,6,7
12/03/94,16:20:00,50,43,34,34,0,10,10,71,41,0,8,6,7
12/03/94,16:25:00,54,36,43,37,0,9,9,71,41,0,8,6,7
12/03/94,16:30:00,49,39,46,29,0,9,9,71,41,0,8,6,7
12/03/94,16:35:00,55,37,45,36,0,9,9,71,43,0,8,6,7
12/03/94,16:40:00,56,36,45,36,0,10,10,71,43,0,8,7,7
12/03/94,16:45:00,56,32,46,35,0,10,10,71,41,0,8,7,7
12/03/94,16:50:00,52,38,40,35,0,11,11,71,41,0,8,7,7
12/03/94,16:55:00,56,40,36,32,0,11,11,71,41,0,8,6,7
12/03/94,17:00:00,55,36,40,36,0,12,12,67,60,0,8,6,7
12/03/94,17:05:00,54,40,44,36,0,13,12,68,46,0,8,6,7
12/03/94,17:10:00,53,36,42,33,0,13,13,67,41,0,8,6,8
12/03/94,17:15:00,56,37,41,34,0,15,14,67,43,0,8,6,8
12/03/94,17:20:00,53,39,42,31,0,15,15,69,43,0,8,6,7
12/03/94,17:25:00,55,37,34,32,0,16,15,68,43,0,8,6,7
12/03/94,17:30:00,57,37,46,38,0,17,16,84,46,0,8,6,7
12/03/94,17:35:00,56,37,45,34,0,18,17,84,41,0,8,6,7
12/03/94,17:40:00,59,39,49,38,0,18,18,84,41,0,8,7,7
12/03/94,17:45:00,57,33,43,39,0,20,19,84,41,0,8,7,7
12/03/94,17:50:00,57,35,44,37,0,21,20,84,46,0,8,6,7
12/03/94,17:55:00,49,42,38,40,0,22,21,84,43,0,8,6,7
12/03/94,18:00:00,55,36,43,38,0,21,20,84,43,0,8,6,7
12/03/94,18:05:00,57,35,46,36,0,20,19,84,43,0,8,6,6
12/03/94,18:10:00,51,39,43,35,0,19,18,83,41,0,9,6,7
12/03/94,18:15:00,57,36,39,37,0,17,17,84,41,0,8,6,7
12/03/94,18:20:00,55,38,45,37,0,16,16,87,41,0,8,6,7
12/03/94,18:25:00,54,40,43,36,0,16,15,87,41,0,8,6,7
12/03/94,18:30:00,49,39,36,40,0,17,16,87,42,0,8,7,7
12/03/94,18:35:00,59,34,42,40,0,19,18,87,41,0,8,7,7
12/03/94,18:40:00,56,38,35,39,0,19,18,86,43,0,8,7,7
12/03/94,18:45:00,50,43,40,41,0,19,18,87,43,0,7,6,7
12/03/94,18:50:00,60,33,44,37,0,21,21,87,43,0,7,6,7
12/03/94,18:55:00,57,36,49,36,0,22,21,87,41,0,8,6,7
12/03/94,19:00:00,54,41,39,37,0,22,21,87,41,0,7,6,7
12/03/94,19:05:00,46,37,37,37,0,22,22,88,41,0,7,6,7
12/03/94,19:10:00,37,33,46,34,0,23,22,87,41,0,8,6,6
12/03/94,19:15:00,52,41,34,40,0,22,21,87,41,0,8,6,7
12/03/94,19:20:00,42,28,43,39,0,21,20,87,41,0,8,6,7
12/03/94,19:25:00,59,38,36,39,0,22,21,87,43,0,8,6,7
12/03/94,19:30:00,53,35,43,38,0,22,21,87,43,0,8,6,7
12/03/94,19:35:00,51,38,43,39,0,22,21,87,41,0,8,6,7
12/03/94,19:40:00,50,42,39,40,0,24,23,87,41,0,8,6,7
12/03/94,19:45:00,47,36,39,39,0,26,25,87,42,0,7,6,7
12/03/94,19:50:00,47,36,35,38,0,28,27,87,46,0,8,6,7
12/03/94,19:55:00,45,39,36,37,0,31,29,87,46,0,7,6,7
12/03/94,20:00:00,53,40,40,40,0,30,29,88,46,0,7,5,7
12/03/94,20:05:00,44,41,38,36,0,29,27,88,43,0,7,5,6
12/03/94,20:10:00,54,37,39,38,0,26,24,88,43,0,7,5,7
12/03/94,20:15:00,41,40,33,38,0,25,24,88,43,0,8,5,7
12/03/94,20:20:00,54,44,44,40,0,26,25,87,41,0,8,6,7
12/03/94,20:25:00,51,39,38,42,0,27,25,87,42,0,8,6,8
12/03/94,20:30:00,51,40,34,40,0,26,25,88,41,0,8,6,7
12/03/94,20:35:00,48,44,32,39,0,26,25,89,41,0,7,6,7
12/03/94,20:40:00,40,40,32,36,0,26,25,88,42,0,7,6,7
12/03/94,20:45:00,37,43,32,40,0,25,24,88,41,0,7,5,7
12/03/94,20:50:00,57,47,41,39,0,25,24,88,44,0,7,5,7
12/03/94,20:55:00,35,41,37,43,0,25,24,88,44,0,7,5,7
12/03/94,21:00:00,47,30,38,41,0,26,24,88,43,0,7,5,6
12/03/94,21:05:00,51,42,41,36,0,28,27,88,41,0,7,5,7
12/03/94,21:10:00,49,40,41,42,0,31,29,88,41,0,7,5,6
12/03/94,21:15:00,36,45,35,34,0,33,31,88,42,0,7,5,6
12/03/94,21:20:00,47,45,31,32,0,33,32,88,41,0,7,6,6
12/03/94,21:25:00,47,32,19,38,0,33,31,88,41,0,7,6,6
12/03/94,21:30:00,37,51,41,40,0,32,31,88,42,0,7,6,7
12/03/94,21:35:00,45,30,34,37,0,31,30,88,44,0,7,5,7
12/03/94,21:40:00,49,51,37,33,0,30,28,87,43,0,7,5,7
12/03/94,21:45:00,37,43,33,35,0,28,27,88,41,0,7,5,7
12/03/94,21:50:00,48,45,43,41,0,26,25,87,41,0,7,5,6
12/03/94,21:55:00,43,38,44,44,0,25,24,87,41,0,7,5,7
12/03/94,22:00:00,57,44,30,42,0,26,25,88,41,0,7,5,6
12/03/94,22:05:00,42,27,38,34,0,27,26,88,41,0,7,5,7
12/03/94,22:10:00,44,25,35,36,0,30,29,88,44,0,7,5,6
12/03/94,22:15:00,44,32,31,24,0,30,29,88,44,0,7,6,6
12/03/94,22:20:00,45,53,39,44,0,30,29,88,48,0,8,6,6
12/03/94,22:25:00,41,40,32,41,0,31,30,88,48,0,7,6,6
12/03/94,22:30:00,44,46,37,40,0,31,29,88,46,0,7,6,6
12/03/94,22:35:00,36,39,35,32,0,31,29,88,46,0,7,6,8
12/03/94,22:40:00,53,36,27,37,0,31,30,88,46,0,7,6,7
12/03/94,22:45:00,45,40,39,29,0,31,30,88,46,0,7,6,7
12/03/94,22:50:00,45,49,35,44,0,32,30,88,54,0,7,6,7
12/03/94,22:55:00,45,34,34,39,0,33,32,89,54,0,6,6,7
12/03/94,23:00:00,47,31,27,36,0,34,32,88,40,0,7,6,7
12/03/94,23:05:00,52,47,28,38,0,34,32,88,40,0,6,6,7
12/03/94,23:10:00,57,43,32,36,0,34,32,88,40,0,6,7,7
12/03/94,23:15:00,40,19,29,32,0,34,32,88,38,0,6,7,6
12/03/94,23:20:00,37,49,38,37,0,34,33,88,38,0,6,6,6
12/03/94,23:25:00,41,36,27,40,0,35,33,88,41,0,7,6,6
12/03/94,23:30:00,45,53,41,38,0,34,32,84,54,0,7,6,6
12/03/94,23:35:00,49,59,41,34,0,33,32,87,50,0,6,6,6
12/03/94,23:40:00,39,31,39,30,0,33,31,80,43,0,6,6,7
12/03/94,23:45:00,29,28,29,42,0,32,30,80,45,0,6,6,7
12/03/94,23:50:00,48,37,32,34,0,31,29,80,45,0,6,6,7
12/03/94,23:55:00,48,33,29,35,0,30,29,80,43,0,6,6,7
12/04/94,00:00:00,54,42,28,32,0,30,29,80,43,0,6,6,7
